Location: Camaret
(48.2753°N, 4.5961°W)
Time: 04:14:20
(UTC+00:00)

Okean-O - Pass Details

Date: 29 October 2020
Orbit: 638 x 641 km, 98.2° (Epoch: 01 December)

Event Time Altitude Azimuth Distance (km) Brightness Sun altitude
Rises 17:59:50 0° 142° (SE) 2,937 5.7 -9.9°
Reaches altitude 10° 18:02:09 10° 134° (SE) 2,032 4.9 -10.3°
Maximum altitude 18:06:12 37° 67° (ENE) 1,008 3.2 -10.9°
Drops below altitude 10° 18:10:17 10° 1° (N) 2,045 5.1 -11.6°
Sets 18:12:37 0° 353° (N) 2,959 6.0 -12.0°
